Regional Weather Roundup
Issued by NWS

Home | Current Version | Previous Version | Text Only | Print | Product List | Glossary Off
Versions: 1 2 3 4 5 6 7 8 9 10 11 12 13 14 15 16 17 18 19 20 21 22 23 24 25 26 27 28 29 30 31 32 33 34 35 36 37 38 39 40 41 42 43 44 45 46 47 48 49 50

000
ASUS43 KOAX 161010
RWRNE

WEATHER ROUNDUP FOR NEBRASKA
NATIONAL WEATHER SERVICE OMAHA NE
400 AM CST TUE JAN 16 2018

NOTES: SATELLITE DATA IS BEING USED TO AUGMENT CLOUD COVER ABOVE
       12000 FEET.
       "FAIR" INDICATES FEW OR NO CLOUDS BELOW 12,000 FEET WITH NO
       SIGNIFICANT WEATHER AND/OR OBSTRUCTIONS TO VISIBILITY.


NEZ001>004-019>022-054>056-161100-
NEBRASKA PANHANDLE

CITY           SKY/WX    TMP DP  RH WIND       PRES   REMARKS
SCOTTSBLUFF    CLEAR     -8 -13  78 CALM      30.59F
ALLIANCE       CLEAR    -16 -22  74 NW3       30.58F
CHADRON        CLEAR    -14 -21  71 SW5       30.66F WCI -26
GORDON         FAIR     -13 -19  77 W7        30.61F WCI -29
KIMBALL        CLEAR     -2  -8  75 W3        30.51S
SIDNEY         CLEAR    -13 -17  82 W7        30.56F WCI -29
$$

NEZ057>060-069>072-079>082-161100-
SOUTHWEST NEBRASKA

CITY           SKY/WX    TMP DP  RH WIND       PRES   REMARKS
NORTH PLATTE   CLEAR     -4 -13  65 NW7       30.70R WCI -18
IMPERIAL       CLEAR     -3  -9  75 N9        30.65F WCI -19
LEXINGTON      CLEAR     -1 -10  68 NW15      30.69F WCI -21
MCCOOK         CLEAR      0  -9  65 NW14      30.70F WCI -19
OGALLALA       PTCLDY    -4 -11  75 W7        30.66F WCI -18
$$

NEZ005>010-023>029-035>040-094-161100-
NORTH CENTRAL NEBRASKA

CITY           SKY/WX    TMP DP  RH WIND       PRES   REMARKS
VALENTINE      CLEAR     -8 -16  67 NW12      30.71F WCI -27
AINSWORTH      CLEAR     -8 -13  76 NW13      30.70S WCI -28
BROKEN BOW     CLEAR     -5 -13  68 NW16      30.67S WCI -27
O`NEILL        CLOUDY    -3  -8  79 NW21      30.71R WCI -26
ORD            CLOUDY    -3 -10  72 NW15      30.71R WCI -23
THEDFORD       CLEAR     -6 -13  72 NW8       30.67S WCI -22
$$

NEZ041-046>049-061>064-073>077-083>087-161100-
SOUTH CENTRAL NEBRASKA

CITY           SKY/WX    TMP DP  RH WIND       PRES   REMARKS
GRAND ISLAND   PTCLDY    -2  -8  76 NW15      30.69S WCI -22
AURORA         CLEAR     -2  -9  72 NW12      30.69S WCI -19
HASTINGS       PTCLDY    -2  -9  72 NW16      30.69F WCI -23
HEBRON         CLOUDY     0  -7  72 NW8       30.74S WCI -14
HOLDREGE       CLEAR     -2  -8  74 NW14G21   30.68F WCI -21
KEARNEY        PTCLDY    -4 -11  72 NW16      30.70S WCI -25
YORK           PTCLDY     0  -6  78 N8        30.70S WCI -15
$$

NEZ011>018-030>034-042>045-161100-
NORTHEAST NEBRASKA

CITY           SKY/WX    TMP DP  RH WIND       PRES   REMARKS
NORFOLK        CLOUDY    -3  -8  79 NW16      30.70R WCI -24
ALBION         CLOUDY    -1  -6  78 N14       30.70R WCI -20
BLAIR          CLOUDY    -1  -7  74 NW15G22   30.68S WCI -20
COLUMBUS       CLOUDY    -2  -8  76 NW18G24   30.73R WCI -24
FREMONT        CLOUDY    -1  -8  72 NW17G23   30.73R WCI -22
TEKAMAH        CLOUDY    -1 -10  65 N18       30.74R WCI -22
WAYNE          CLOUDY    -2  -8  76 NW15G22   30.73R WCI -22
$$

NEZ050>053-065>068-078-088>093-161100-
SOUTHEAST NEBRASKA

CITY           SKY/WX    TMP DP  RH WIND       PRES   REMARKS
LINCOLN        CLOUDY     0  -8  69 NW14      30.75R WCI -19
OMAHA EPPLEY   FLURRIES   0  -8  69 N16       30.72R WCI -20
BEATRICE       CLOUDY     1  -5  73 NW16      30.72S WCI -18
FALLS CITY     CLEAR     -4 -10  75 NW9       30.72R WCI -20
NEBRASKA CITY  MOCLDY    -3  -8  77 NW10      30.70S WCI -19
PLATTSMOUTH    CLOUDY    -2  -7  78 NW16      30.69S WCI -22
$$

NEZ044-045-051>053-067-161100-
OMAHA AREA

CITY           SKY/WX    TMP DP  RH WIND       PRES   REMARKS
OMAHA EPPLEY   FLURRIES   0  -8  69 N16       30.72R WCI -20
BLAIR          CLOUDY    -1  -7  74 NW15G22   30.68S WCI -20
FREMONT        CLOUDY    -1  -8  72 NW17G23   30.73R WCI -22
MILLARD        CLOUDY     1  -6  71 NW9       30.73S WCI -14
OFFUTT AFB     CLOUDY    -1 -10  67 NW15G22   30.71S WCI -21
PLATTSMOUTH    CLOUDY    -2  -7  78 NW16      30.69S WCI -22
WAHOO          CLOUDY     0  -8  69 N24G31    30.72S WCI -24
$$




USA.gov is the U.S. government's official web portal to all federal, state and local government web resources and services.